Other Public Products
Issued by NWS Charleston, SC

Home | Current Version | Previous Version | Text Only | Print | Product List | Glossary On
Versions: 1 2 3 4 5 6 7 8 9 10 11 12 13 14 15 16 17 18 19 20 21 22 23 24 25 26 27 28 29 30 31 32 33 34 35 36 37 38 39 40 41 42 43 44 45 46 47 48 49 50
418
FPUS82 KCHS 051727
OPUCHS

TEST...KCHS/KSAV Gateway Observations...TEST
National Weather Service Charleston SC
1200 PM EST MON DEC 05 2016

NOTE: "fair" indicates few or no clouds below 12,000 feet with no
significant weather and/or obstructions to visibility.

SCZ050-WAZ558-NCZ071-TXZ119-213-PAZ071-DCZ001-FLZ074-172-MI076-
NYZ176-178-MAZ016-IL014-TNZ027-NJZ106-GAZ044-MD014-051800-
...Gateway Observations for Charleston International...

CITY           SKY/WX    TMP DP  RH WIND       PRES   REMARKS
Chas Airport   CLOUDY    57  52  83 N7        29.99F HAZE
Seattle        LGT RAIN  34  33  96 SE8       30.07S FOG     WCI  27
Charlotte      PTSUNNY   47  44  90 CALM      30.03F
Dallas DFW     CLOUDY    50  44  80 SE5       29.90R
Dallas Love    CLOUDY    50  44  80 E3        29.90R
Philladelphia  MOSUNNY   46  40  79 W8        30.00F
Wash National  MOSUNNY   53  43  68 NW10G16   30.03F
Baltimore      MOSUNNY   53  40  61 NW9G23    30.00F
Miami          PTSUNNY   81  72  74 SE16G24   30.01F
Detroit        CLOUDY    40  32  73 W12       30.06S WCI  33
Newark         MOSUNNY   46  39  76 W15       29.97F
Laguardia      MOSUNNY   47  38  71 W14G25    29.95F
J F K          MOSUNNY   48  39  71 W15G22    29.97F
Boston Logan   LGT RAIN  37  36  96 SE8       29.96F WCI  31
Ft. Lauderdale PTSUNNY   81  72  74 SE16G28   29.99F
Chicago O`Hare CLOUDY    32  31  96 S10       30.03S FOG     WCI  24
Chicago Midway CLOUDY    33  29  85 S9        30.04F WCI  25
Houston Bush   CLOUDY    53  51  93 E7        29.81F
Houston Hobby  CLOUDY    55  54  96 E3        29.79F
Nashville      CLOUDY    44  40  85 NE8       30.06F
Atlanta        CLOUDY    51  48  89 E6        29.98F FOG

$$

GAZ044-118-TXZ119-213-NCZ071-DCZ001-MDZ014-506-PAZ021-071-NJZ106-
NYZ176-178-MAZ106-OHZ011-021-055-MIZ076-KYZ091-ILZ014-INZ047-
MNZ060-051800-
...Gateway Observations for Savannah International...

CITY           SKY/WX    TMP DP  RH WIND       PRES   REMARKS
Savannah Arpt  CLOUDY    58  55  90 NE3       29.99F
Atlanta        CLOUDY    51  48  89 E6        29.98F FOG
Charlotte      PTSUNNY   47  44  90 CALM      30.03F
Dallas DFW     CLOUDY    50  44  80 SE5       29.90R
Houston Bush   CLOUDY    53  51  93 E7        29.81F
Wash National  MOSUNNY   53  43  68 NW10G16   30.03F
Wash Dulles    MOSUNNY   51  41  68 N8        30.02F
Baltimore      MOSUNNY   53  40  61 NW9G23    30.00F
Philadelphia   MOSUNNY   46  40  79 W8        30.00F
Newark         MOSUNNY   46  39  76 W15       29.97F
Laguardia      MOSUNNY   47  38  71 W14G25    29.95F
J F K          MOSUNNY   48  39  71 W15G22    29.97F
Boston         LGT RAIN  37  36  96 SE8       29.96F WCI  31
Pittsburg      PTSUNNY   41  30  65 NW10      30.07F
Akron          CLOUDY    38  29  70 W9        30.08F WCI  31
Cleveland      CLOUDY    40  30  67 W12       30.10F WCI  33
Cincinnati     PTSUNNY   41  32  70 N5        30.11F
Columbus       CLOUDY    38  31  74 S3        30.13S
Detroit        CLOUDY    40  32  73 W12       30.06S WCI  33
Chicago O`Hare CLOUDY    32  31  96 S10       30.03S FOG     WCI  24
Minneapolis    CLOUDY    34  30  85 E16       29.72F WCI  24
Indianapolis   CLOUDY    38  31  76 SE8       30.10F WCI  32

$$




USA.gov is the U.S. government's official web portal to all federal, state and local government web resources and services.